Location: Boussac
(44.2782°N, 2.3665°E)
Time: 15:57:24
(UTC+00:00)

USA 290 - Pass Details

Date: 15 May 2026
Orbit: 396 x 415 km, 73.6° (Epoch: 30 October)

Event Time Altitude Azimuth Distance (km) Brightness Sun altitude
Exits shadow 21:18:07 57° 86° (E) 468 2.2 -18.1°
Drops below altitude 10° 21:20:59 10° 29° (NNE) 1,432 5.3 -18.5°
Sets 21:23:02 0° 25° (NNE) 2,292 6.4 -18.7°
